"startDT [UTC]","vpos","CH4 [ppm]","stdev(CH4) [ppm]","CO2 [ppm]","stdev(CO2) [ppm]","H2O_reported [%]","stdev(H2O_reported)","CavityPressure [torr]","CavityTemp [C]","OutletValve","CH4_dry [ppm]","CO2_dry [ppm]","DasTemp [C]","EtalonTemp [C]","WarmBoxTemp [C]","MPVPosition","T_ECpre [C]","T_EC1 [C]","T_EC2 [C]","p_inlet [hPa]","p_in [hPa]","p_out [hPa]","T_inlet [C]","RH_inlet [%]","dwpt_inlet [C]","T_vent [C]","RH_vent [%]","dwpt_vent [C]","flow_vent [l min-1]","flow_inlet [l min-1]","dwpt_sample [C]","T_room [C]"
2015-07-25 00:00:00,0.0,1.90910,0.00041,382.015,0.028,1.1118,0.0022,139.999,45.000,34413.96552,1.93074,387.312,34.503,45.067,45.000,0.00,0.10,-272.73,-272.80,-8,999,-7,24.9,27.3,4.8,24.7,28.1,5.0,5.73,1.89,4.0,28.6
2015-07-25 00:01:00,0.0,1.90915,0.00049,381.999,0.058,1.1143,0.0018,140.000,45.000,34415.93801,1.93086,387.306,34.500,45.067,45.000,0.00,0.10,-272.73,-272.79,-8,999,-7,24.9,27.3,4.8,24.7,28.2,5.0,5.73,1.88,4.1,28.6
2015-07-25 00:02:00,0.0,1.90933,0.00025,382.016,0.053,1.1131,0.0017,139.999,45.000,34413.32795,1.93101,387.318,34.498,45.067,45.000,0.00,0.10,-272.72,-272.79,-8,999,-7,24.9,27.3,4.8,24.7,28.2,5.0,5.73,1.89,4.0,28.6
2015-07-25 00:03:00,0.0,1.90925,0.00043,382.049,0.038,1.1118,0.0019,140.004,45.000,34417.50633,1.93093,387.344,34.498,45.067,45.000,0.00,0.10,-272.72,-272.79,-8,999,-7,24.9,27.3,4.8,24.7,28.1,5.0,5.73,1.89,4.0,28.5
2015-07-25 00:04:00,0.0,1.90934,0.00026,382.060,0.023,1.1132,0.0020,140.000,45.000,34414.74310,1.93097,387.363,34.500,45.067,45.000,0.00,0.10,-272.73,-272.79,-8,1000,-7,24.9,27.3,4.8,24.7,28.1,5.0,5.73,1.89,4.1,28.5
2015-07-25 00:05:00,0.0,1.90969,0.00025,382.088,0.036,1.1118,0.0015,139.997,45.000,34413.21714,1.93134,387.384,34.500,45.067,45.000,0.00,0.10,-272.73,-272.79,-8,1000,-7,24.9,27.3,4.8,24.7,28.1,5.0,5.73,1.89,4.0,28.5
2015-07-25 00:06:00,0.0,1.90990,0.00043,382.062,0.047,1.1143,0.0021,140.001,45.000,34415.59068,1.93165,387.373,34.496,45.067,45.000,0.00,0.10,-272.73,-272.78,-8,999,-7,24.9,27.3,4.8,24.7,28.2,5.0,5.73,1.89,4.0,28.5
2015-07-25 00:07:00,0.0,1.90924,0.00021,382.111,0.027,1.1140,0.0018,140.004,45.000,34416.69295,1.93091,387.418,34.487,45.067,45.000,0.00,0.10,-272.73,-272.79,-8,999,-7,24.9,27.3,4.8,24.7,28.2,5.0,5.73,1.89,4.0,28.6
2015-07-25 00:08:00,0.0,1.90935,0.00039,382.126,0.046,1.1123,0.0019,140.002,45.000,34417.76142,1.93103,387.424,34.473,45.067,45.000,0.00,0.10,-272.73,-272.78,-8,999,-7,24.9,27.3,4.8,24.7,28.1,5.0,5.73,1.88,4.0,28.6
2015-07-25 00:09:00,0.0,1.90996,0.00043,382.105,0.037,1.1122,0.0019,140.000,45.000,34413.93294,1.93159,387.406,34.446,45.067,45.000,0.00,0.10,-272.72,-272.79,-8,1000,-7,24.9,27.3,4.8,24.7,28.1,5.0,5.73,1.89,4.0,28.5
2015-07-25 00:10:00,0.0,1.91010,0.00038,382.113,0.035,1.1120,0.0020,139.999,45.000,34414.17241,1.93177,387.408,34.434,45.068,45.000,0.00,0.10,-272.72,-272.79,-8,1000,-7,24.9,27.3,4.8,24.7,28.2,5.0,5.73,1.89,4.0,28.5
2015-07-25 00:11:00,0.0,1.91028,0.00035,382.103,0.031,1.1111,0.0029,139.995,45.000,34414.25707,1.93190,387.398,34.428,45.068,45.000,0.00,0.10,-272.73,-272.79,-8,1000,-7,24.9,27.3,4.7,24.7,28.1,5.0,5.73,1.88,4.0,28.5
2015-07-25 00:12:00,0.0,1.91035,0.00042,382.124,0.026,1.1094,0.0013,140.001,45.000,34414.20050,1.93194,387.408,34.424,45.068,45.000,0.00,0.10,-272.72,-272.79,-8,999,-7,24.9,27.2,4.7,24.7,28.1,5.0,5.73,1.88,4.0,28.4
2015-07-25 00:13:00,0.0,1.91068,0.00032,382.116,0.030,1.1107,0.0022,139.997,45.000,34411.26747,1.93233,387.408,34.446,45.067,45.000,0.00,0.10,-272.72,-272.79,-8,999,-7,24.9,27.3,4.8,24.6,28.1,4.9,5.73,1.87,4.0,28.5
2015-07-25 00:14:00,0.0,1.91055,0.00053,382.040,0.040,1.1113,0.0019,140.000,45.000,34412.46906,1.93221,387.332,34.494,45.067,45.000,0.00,0.10,-272.73,-272.80,-8,1000,-7,24.9,27.3,4.8,24.6,28.1,5.0,5.73,1.88,4.0,28.5
2015-07-25 00:15:00,0.0,1.91051,0.00035,382.047,0.045,1.1123,0.0020,140.001,45.000,34416.18648,1.93221,387.348,34.479,45.067,45.000,0.00,0.10,-272.72,-272.79,-8,1000,-7,24.9,27.3,4.8,24.6,28.2,5.0,5.73,1.87,4.0,28.5
2015-07-25 00:16:00,0.0,1.91082,0.00047,382.039,0.036,1.1129,0.0025,139.998,45.000,34415.11404,1.93251,387.340,34.445,45.067,45.000,0.00,0.10,-272.72,-272.79,-8,1000,-7,24.9,27.3,4.8,24.7,28.2,5.0,5.73,1.87,4.0,28.5
2015-07-25 00:17:00,0.0,1.91114,0.00053,382.049,0.040,1.1098,0.0033,139.995,45.000,34411.83346,1.93274,387.335,34.438,45.067,45.000,0.00,0.10,-272.73,-272.79,-8,1000,-7,24.9,27.2,4.7,24.6,28.1,5.0,5.73,1.87,4.0,28.5
2015-07-25 00:18:00,0.0,1.91133,0.00039,382.032,0.030,1.1102,0.0022,139.999,45.000,34412.62706,1.93297,387.321,34.438,45.067,45.000,0.00,0.10,-272.73,-272.79,-8,1000,-7,24.9,27.3,4.7,24.6,28.1,4.9,5.73,1.87,4.0,28.5
2015-07-25 00:19:00,0.0,1.91098,0.00050,382.085,0.058,1.1102,0.0023,140.000,45.000,34414.50259,1.93267,387.372,34.433,45.067,45.000,0.00,0.10,-272.72,-272.78,-8,1000,-7,24.9,27.3,4.8,24.6,28.1,5.0,5.73,1.87,4.0,28.4
2015-07-25 00:20:00,0.0,1.91104,0.00049,382.040,0.032,1.1107,0.0018,140.003,45.000,34415.38304,1.93265,387.332,34.431,45.068,45.000,0.00,0.10,-272.73,-272.79,-8,1000,-7,24.9,27.3,4.8,24.6,28.1,5.0,5.73,1.86,4.0,28.5
2015-07-25 00:21:00,0.0,1.91083,0.00039,382.032,0.033,1.1099,0.0019,139.998,45.000,34416.69039,1.93250,387.317,34.426,45.068,45.000,0.00,0.10,-272.73,-272.79,-8,1000,-7,24.9,27.3,4.8,24.6,28.1,4.9,5.73,1.87,4.0,28.5
2015-07-25 00:22:00,0.0,1.91085,0.00039,382.037,0.026,1.1113,0.0026,139.998,45.000,34414.86225,1.93249,387.331,34.390,45.068,45.000,0.00,0.10,-272.72,-272.78,-8,999,-7,24.9,27.3,4.8,24.6,28.1,5.0,5.73,1.87,4.0,28.5
2015-07-25 00:23:00,0.0,1.91065,0.00043,382.095,0.029,1.1109,0.0017,139.997,45.000,34415.25187,1.93228,387.385,34.375,45.068,45.000,0.00,0.10,-272.72,-272.79,-8,999,-7,24.9,27.3,4.8,24.6,28.2,5.0,5.73,1.88,4.0,28.5
2015-07-25 00:24:00,0.0,1.91073,0.00039,382.051,0.031,1.1101,0.0019,140.000,45.000,34417.67537,1.93239,387.339,34.375,45.068,45.000,0.00,0.10,-272.73,-272.79,-8,1000,-7,24.9,27.3,4.8,24.6,28.1,4.9,5.73,1.87,4.0,28.5
2015-07-25 00:25:00,0.0,1.91023,0.00032,382.034,0.034,1.1099,0.0015,140.000,45.000,34417.85291,1.93187,387.322,34.376,45.068,45.000,0.00,0.10,-272.72,-272.79,-8,1000,-7,24.9,27.3,4.8,24.6,28.1,5.0,5.73,1.89,4.0,28.5
2015-07-25 00:26:00,0.0,1.91003,0.00033,382.022,0.036,1.1102,0.0014,140.000,45.000,34418.33180,1.93164,387.311,34.378,45.068,45.000,0.00,0.10,-272.72,-272.78,-8,1000,-7,24.9,27.3,4.8,24.6,28.1,4.9,5.73,1.88,4.0,28.5
2015-07-25 00:27:00,0.0,1.91005,0.00031,382.033,0.049,1.1117,0.0023,139.999,45.000,34416.44660,1.93177,387.327,34.379,45.068,45.000,0.00,0.10,-272.73,-272.79,-8,1000,-7,24.9,27.4,4.8,24.6,28.2,5.0,5.73,1.89,4.0,28.6
2015-07-25 00:28:00,0.0,1.90958,0.00045,382.056,0.046,1.1126,0.0017,140.000,45.000,34416.27679,1.93127,387.353,34.377,45.068,45.000,0.00,0.10,-272.73,-272.79,-8,999,-7,24.9,27.3,4.8,24.6,28.2,5.0,5.73,1.89,4.0,28.5
2015-07-25 00:29:00,0.0,1.90916,0.00050,382.071,0.036,1.1110,0.0016,140.001,45.000,34416.34960,1.93078,387.365,34.376,45.068,45.000,0.00,0.10,-272.72,-272.79,-8,1000,-7,24.9,27.3,4.7,24.6,28.2,5.0,5.73,1.89,4.0,28.5
2015-07-25 00:30:00,0.0,1.90854,0.00028,382.030,0.036,1.1103,0.0020,140.002,45.000,34418.01962,1.93018,387.318,34.371,45.067,45.000,0.00,0.10,-272.72,-272.79,-8,1000,-7,24.9,27.3,4.8,24.6,28.2,5.0,5.73,1.89,4.0,28.6
2015-07-25 00:31:00,0.0,1.90859,0.00040,382.030,0.036,1.1096,0.0014,140.000,45.000,34416.61240,1.93018,387.316,34.373,45.067,45.000,0.00,0.10,-272.73,-272.79,-8,999,-7,24.9,27.3,4.7,24.6,28.1,4.9,5.73,1.89,4.0,28.5
2015-07-25 00:32:00,0.0,1.90830,0.00037,382.059,0.039,1.1083,0.0025,139.998,45.000,34416.75087,1.92991,387.338,34.369,45.067,45.000,0.00,0.10,-272.72,-272.78,-8,999,-7,24.9,27.3,4.7,24.6,28.1,4.9,5.73,1.89,4.0,28.5
2015-07-25 00:33:00,0.0,1.90827,0.00048,382.093,0.033,1.1066,0.0024,139.999,45.000,34416.67501,1.92975,387.364,34.373,45.067,45.000,0.00,0.10,-272.73,-272.78,-8,1000,-7,24.9,27.2,4.7,24.6,28.0,4.9,5.73,1.89,4.0,28.5
2015-07-25 00:34:00,0.0,1.90809,0.00034,382.060,0.043,1.1061,0.0018,139.998,45.000,34415.55469,1.92968,387.329,34.374,45.067,45.000,0.00,0.10,-272.73,-272.79,-8,1000,-7,24.9,27.2,4.7,24.6,28.0,4.9,5.73,1.89,4.0,28.5
2015-07-25 00:35:00,0.0,1.90809,0.00036,382.051,0.040,1.1046,0.0015,139.999,45.000,34415.53851,1.92960,387.312,34.366,45.067,45.000,0.00,0.10,-272.73,-272.79,-8,1000,-7,24.9,27.2,4.7,24.6,28.1,4.9,5.73,1.88,4.0,28.5
2015-07-25 00:36:00,0.0,1.90769,0.00036,382.085,0.050,1.1040,0.0020,140.001,45.000,34414.52928,1.92913,387.343,34.357,45.067,45.000,0.00,0.10,-272.72,-272.78,-8,1000,-7,24.9,27.1,4.6,24.6,28.0,4.9,5.73,1.88,4.0,28.6
2015-07-25 00:37:00,0.0,1.90780,0.00038,382.082,0.041,1.1009,0.0017,139.998,45.000,34414.15092,1.92924,387.324,34.337,45.067,45.000,0.00,0.10,-272.72,-272.79,-8,1000,-7,24.9,27.1,4.6,24.6,27.9,4.8,5.73,1.87,4.0,28.5
2015-07-25 00:38:00,0.0,1.90742,0.00034,382.107,0.040,1.1003,0.0024,140.002,45.000,34414.93544,1.92881,387.343,34.313,45.068,45.000,0.00,0.10,-272.72,-272.80,-8,1000,-7,24.9,27.1,4.6,24.6,27.9,4.8,5.73,1.87,4.0,28.6
2015-07-25 00:39:00,0.0,1.90726,0.00068,382.157,0.125,1.1022,0.0018,139.997,45.000,34412.92947,1.92872,387.408,34.308,45.068,45.000,0.00,0.10,-272.72,-272.79,-8,1000,-7,24.9,27.1,4.6,24.6,28.0,4.8,5.73,1.87,4.0,28.5
2015-07-25 00:40:00,0.0,1.90699,0.00043,382.101,0.051,1.1017,0.0024,140.001,45.000,34411.95200,1.92842,387.350,34.300,45.068,45.000,0.00,0.10,-272.72,-272.79,-8,1000,-7,24.9,27.1,4.6,24.6,27.9,4.8,5.73,1.86,4.0,28.5
2015-07-25 00:41:00,0.0,1.90671,0.00026,382.188,0.022,1.0992,0.0017,139.998,45.000,34412.52697,1.92805,387.421,34.309,45.068,45.000,0.00,0.10,-272.73,-272.79,-8,999,-7,24.9,27.0,4.6,24.6,27.9,4.8,5.73,1.86,4.0,28.5
2015-07-25 00:42:00,0.0,1.90685,0.00042,382.152,0.035,1.0997,0.0022,139.999,45.000,34411.62069,1.92825,387.390,34.310,45.068,45.000,0.00,0.10,-272.73,-272.79,-8,1000,-7,24.9,27.1,4.6,24.6,27.9,4.8,5.73,1.86,4.0,28.5
2015-07-25 00:43:00,0.0,1.90663,0.00037,382.139,0.038,1.1000,0.0020,139.998,45.000,34411.18294,1.92800,387.379,34.313,45.067,45.000,0.00,0.10,-272.73,-272.79,-8,1000,-7,24.9,27.1,4.6,24.6,27.9,4.8,5.73,1.87,4.0,28.5
2015-07-25 00:44:00,0.0,1.90663,0.00041,382.129,0.034,1.0972,0.0022,139.999,45.000,34411.39341,1.92798,387.353,34.333,45.067,45.000,0.00,0.10,-272.73,-272.79,-8,1000,-7,24.9,27.0,4.6,24.6,27.9,4.8,5.73,1.87,4.0,28.5
2015-07-25 00:45:00,0.0,1.90674,0.00032,382.143,0.035,1.0975,0.0015,140.000,45.000,34411.80655,1.92807,387.369,34.372,45.067,45.000,0.00,0.10,-272.73,-272.79,-8,1000,-7,24.9,27.0,4.6,24.6,27.9,4.8,5.73,1.88,4.0,28.4
2015-07-25 00:46:00,0.0,1.90656,0.00047,382.148,0.030,1.0988,0.0009,140.002,45.000,34412.34979,1.92790,387.381,34.375,45.067,44.999,0.00,0.10,-272.72,-272.78,-8,1000,-7,24.9,27.0,4.6,24.6,27.9,4.8,5.73,1.88,4.0,28.5
2015-07-25 00:47:00,0.0,1.90643,0.00037,382.126,0.043,1.0979,0.0026,139.999,45.000,34412.20144,1.92778,387.356,34.375,45.067,44.999,0.00,0.10,-272.73,-272.79,-8,1000,-7,24.9,27.0,4.6,24.6,27.9,4.8,5.73,1.89,3.9,28.4
2015-07-25 00:48:00,0.0,1.90608,0.00044,382.158,0.045,1.0965,0.0016,139.998,45.000,34412.75681,1.92746,387.378,34.375,45.067,44.999,0.00,0.10,-272.73,-272.78,-8,1000,-7,24.9,27.0,4.6,24.6,27.9,4.8,5.73,1.89,3.9,28.4
2015-07-25 00:49:00,0.0,1.90576,0.00037,382.151,0.034,1.0963,0.0017,140.001,45.000,34414.74250,1.92705,387.373,34.374,45.067,44.999,0.00,0.10,-272.72,-272.78,-8,999,-7,24.8,27.0,4.6,24.6,27.8,4.8,5.73,1.90,4.0,28.4
2015-07-25 00:50:00,0.0,1.90580,0.00053,382.154,0.043,1.0966,0.0017,140.002,45.000,34415.74468,1.92709,387.376,34.364,45.067,45.000,0.00,0.10,-272.73,-272.79,-8,1000,-7,24.9,27.0,4.6,24.6,27.9,4.8,5.73,1.90,3.9,28.4
2015-07-25 00:51:00,0.0,1.90566,0.00038,382.212,0.022,1.0953,0.0017,140.001,45.000,34413.80371,1.92695,387.428,34.350,45.067,45.000,0.00,0.10,-272.73,-272.80,-8,1000,-7,24.8,26.9,4.5,24.6,27.8,4.7,5.73,1.90,3.9,28.4
2015-07-25 00:52:00,0.0,1.90561,0.00032,382.196,0.038,1.0938,0.0018,140.000,45.000,34412.30186,1.92686,387.406,34.320,45.067,45.000,0.00,0.10,-272.72,-272.79,-8,1000,-7,24.8,26.9,4.5,24.6,27.8,4.7,5.73,1.89,3.9,28.4
2015-07-25 00:53:00,0.0,1.90520,0.00030,382.182,0.033,1.0930,0.0020,139.996,45.000,34412.86685,1.92646,387.388,34.314,45.068,45.000,0.00,0.10,-272.72,-272.79,-8,1000,-7,24.8,26.9,4.5,24.6,27.8,4.7,5.73,1.90,3.9,28.4
2015-07-25 00:54:00,0.0,1.90556,0.00043,382.198,0.022,1.0932,0.0023,139.999,45.000,34414.94650,1.92676,387.404,34.315,45.068,45.000,0.00,0.10,-272.73,-272.79,-8,1000,-7,24.9,26.9,4.5,24.6,27.8,4.7,5.73,1.89,3.9,28.4
2015-07-25 00:55:00,0.0,1.90554,0.00041,382.189,0.031,1.0910,0.0022,139.998,45.000,34413.05295,1.92674,387.385,34.313,45.068,45.000,0.00,0.10,-272.73,-272.79,-8,1000,-7,24.8,26.9,4.5,24.6,27.7,4.7,5.73,1.88,3.9,28.4
2015-07-25 00:56:00,0.0,1.90568,0.00040,382.246,0.034,1.0891,0.0019,139.998,45.000,34411.96260,1.92684,387.431,34.311,45.068,45.000,0.00,0.10,-272.72,-272.78,-8,1000,-7,24.8,26.8,4.4,24.6,27.7,4.7,5.73,1.87,3.9,28.4
2015-07-25 00:57:00,0.0,1.90549,0.00049,382.248,0.040,1.0864,0.0013,139.998,45.000,34413.18074,1.92661,387.421,34.313,45.068,45.000,0.00,0.10,-272.73,-272.79,-8,1000,-7,24.8,26.8,4.4,24.6,27.6,4.7,5.73,1.87,3.9,28.4
2015-07-25 00:58:00,0.0,1.90537,0.00043,382.292,0.047,1.0865,0.0020,140.000,45.000,34414.43713,1.92647,387.464,34.313,45.068,45.000,0.00,0.10,-272.73,-272.79,-8,1000,-7,24.8,26.7,4.4,24.5,27.6,4.6,5.73,1.87,3.9,28.4
2015-07-25 00:59:00,0.0,1.90527,0.00047,382.336,0.027,1.0819,0.0011,140.002,45.000,34415.94136,1.92627,387.490,34.312,45.067,45.000,0.00,0.10,-272.72,-272.79,-8,1000,-7,24.8,26.7,4.4,24.5,27.5,4.6,5.73,1.86,3.9,28.4
2015-07-25 01:00:00,0.0,1.90505,0.00035,382.307,0.029,1.0830,0.0017,139.997,45.000,34415.06618,1.92606,387.465,34.313,45.067,45.000,0.00,0.10,-272.72,-272.79,-8,1000,-7,24.8,26.7,4.4,24.5,27.5,4.6,5.73,1.86,3.9,28.4
2015-07-25 01:01:00,0.0,1.90481,0.00024,382.282,0.046,1.0814,0.0026,139.999,45.000,34413.50769,1.92583,387.430,34.313,45.067,45.000,0.00,0.10,-272.73,-272.79,-8,1000,-7,24.8,26.6,4.3,24.5,27.5,4.5,5.73,1.86,3.9,28.4
2015-07-25 01:02:00,0.0,1.90500,0.00056,382.278,0.039,1.0813,0.0015,140.001,45.000,34412.98955,1.92593,387.426,34.314,45.067,45.000,0.00,0.10,-272.73,-272.79,-8,1000,-7,24.8,26.6,4.3,24.6,27.5,4.6,5.73,1.87,3.9,28.4
2015-07-25 01:03:00,0.0,1.90529,0.00026,382.283,0.038,1.0789,0.0022,140.000,45.000,34412.61547,1.92627,387.422,34.312,45.067,45.000,0.00,0.10,-272.72,-272.78,-8,1000,-7,24.8,26.6,4.3,24.5,27.4,4.5,5.73,1.87,3.9,28.4
2015-07-25 01:04:00,0.0,1.90516,0.00042,382.311,0.029,1.0767,0.0024,140.004,45.000,34414.78219,1.92606,387.436,34.315,45.067,45.000,0.00,0.10,-272.73,-272.79,-8,1000,-7,24.8,26.5,4.3,24.5,27.4,4.5,5.73,1.88,3.9,28.4
2015-07-25 01:05:00,0.0,1.90538,0.00033,382.267,0.046,1.0754,0.0019,140.000,45.000,34412.31579,1.92625,387.387,34.314,45.067,45.000,0.00,0.10,-272.73,-272.80,-8,1000,-7,24.8,26.5,4.3,24.5,27.3,4.5,5.73,1.89,3.9,28.4
2015-07-25 01:06:00,0.0,1.90549,0.00047,382.245,0.030,1.0770,0.0020,140.001,45.000,34410.97204,1.92638,387.372,34.324,45.067,45.000,0.00,0.10,-272.72,-272.79,-8,1000,-7,24.8,26.5,4.3,24.5,27.4,4.5,5.73,1.90,3.9,28.4
2015-07-25 01:07:00,0.0,1.90545,0.00038,382.203,0.035,1.0756,0.0019,140.001,45.000,34408.57496,1.92634,387.321,34.336,45.067,45.000,0.00,0.10,-272.73,-272.79,-8,999,-7,24.8,26.5,4.3,24.5,27.4,4.5,5.73,1.90,3.9,28.4
2015-07-25 01:08:00,0.0,1.90515,0.00040,382.300,0.026,1.0736,0.0019,140.001,45.000,34411.06500,1.92600,387.412,34.352,45.067,45.000,0.00,0.10,-272.72,-272.80,-8,1000,-7,24.8,26.5,4.2,24.5,27.3,4.5,5.73,1.90,3.9,28.4
2015-07-25 01:09:00,0.0,1.90510,0.00058,382.282,0.051,1.0739,0.0016,140.002,45.000,34410.71356,1.92593,387.390,34.350,45.067,45.000,0.00,0.10,-272.72,-272.79,-8,1000,-7,24.8,26.5,4.2,24.5,27.3,4.4,5.73,1.90,3.9,28.5
2015-07-25 01:10:00,0.0,1.90517,0.00033,382.273,0.057,1.0757,0.0015,140.003,45.000,34411.73421,1.92607,387.397,34.318,45.067,45.000,0.00,0.10,-272.72,-272.79,-7,1000,-7,24.8,26.5,4.3,24.5,27.3,4.5,5.73,1.90,3.9,28.4
2015-07-25 01:11:00,0.0,1.90483,0.00048,382.250,0.042,1.0778,0.0019,140.001,45.000,34411.00091,1.92573,387.377,34.317,45.067,45.000,0.00,0.10,-272.73,-272.79,-8,1000,-7,24.8,26.6,4.3,24.5,27.4,4.5,5.73,1.89,3.9,28.4
2015-07-25 01:12:00,0.0,1.90518,0.00026,382.317,0.048,1.0747,0.0019,139.999,45.000,34409.79802,1.92607,387.434,34.315,45.067,45.000,0.00,0.10,-272.73,-272.79,-8,1000,-7,24.8,26.5,4.3,24.5,27.4,4.5,5.73,1.88,3.9,28.4
2015-07-25 01:13:00,0.0,1.90489,0.00035,382.292,0.048,1.0736,0.0023,140.000,45.000,34409.88610,1.92568,387.404,34.314,45.067,45.000,0.00,0.10,-272.72,-272.79,-8,1000,-7,24.8,26.5,4.2,24.5,27.3,4.5,5.73,1.87,3.9,28.4
2015-07-25 01:14:00,0.0,1.90484,0.00039,382.236,0.045,1.0741,0.0020,140.001,45.000,34410.00234,1.92570,387.350,34.325,45.068,45.000,0.00,0.10,-272.73,-272.79,-8,999,-7,24.8,26.5,4.3,24.5,27.3,4.5,5.73,1.87,3.9,28.4
2015-07-25 01:15:00,0.0,1.90471,0.00033,382.173,0.046,1.0747,0.0017,139.999,45.000,34408.96500,1.92557,387.287,34.332,45.068,45.000,0.00,0.10,-272.73,-272.79,-8,1000,-7,24.8,26.5,4.2,24.5,27.3,4.5,5.73,1.86,3.9,28.4
2015-07-25 01:16:00,0.0,1.90536,0.00039,382.286,0.039,1.0738,0.0017,140.002,45.000,34407.66268,1.92618,387.396,34.355,45.067,45.000,0.00,0.10,-272.73,-272.79,-8,1000,-7,24.8,26.5,4.2,24.5,27.3,4.5,5.73,1.86,3.9,28.4
2015-07-25 01:17:00,0.0,1.90550,0.00040,382.308,0.023,1.0721,0.0018,139.999,45.000,34405.19325,1.92631,387.412,34.345,45.067,45.000,0.00,0.10,-272.73,-272.79,-7,1000,-7,24.8,26.5,4.2,24.5,27.3,4.4,5.73,1.86,3.9,28.4
2015-07-25 01:18:00,0.0,1.90544,0.00031,382.195,0.049,1.0751,0.0021,139.999,45.000,34405.34642,1.92631,387.312,34.340,45.067,45.000,0.00,0.10,-272.73,-272.79,-8,999,-7,24.8,26.6,4.3,24.5,27.3,4.5,5.73,1.87,3.9,28.4
2015-07-25 01:19:00,0.0,1.90550,0.00043,382.226,0.036,1.0760,0.0021,139.998,45.000,34406.00631,1.92642,387.347,34.332,45.067,45.000,0.00,0.10,-272.73,-272.79,-8,1000,-7,24.8,26.6,4.3,24.5,27.4,4.5,5.73,1.87,3.9,28.4
2015-07-25 01:20:00,0.0,1.90530,0.00038,382.288,0.052,1.0751,0.0019,139.998,45.000,34403.10887,1.92617,387.405,34.334,45.067,45.000,0.00,0.10,-272.72,-272.79,-8,1000,-7,24.8,26.5,4.2,24.5,27.4,4.5,5.73,1.88,3.9,28.4
2015-07-25 01:21:00,0.0,1.90502,0.00041,382.249,0.036,1.0762,0.0016,139.994,45.000,34403.16218,1.92592,387.373,34.318,45.067,45.000,0.00,0.10,-272.73,-272.80,-8,1000,-7,24.8,26.6,4.3,24.5,27.4,4.5,5.73,1.89,3.8,28.4
2015-07-25 01:22:00,0.0,1.90453,0.00027,382.271,0.038,1.0742,0.0016,140.002,45.000,34406.69393,1.92539,387.383,34.312,45.068,45.000,0.00,0.10,-272.72,-272.79,-8,999,-7,24.8,26.6,4.3,24.5,27.4,4.5,5.73,1.90,3.8,28.4
2015-07-25 01:23:00,0.0,1.90432,0.00038,382.231,0.046,1.0760,0.0021,140.001,45.000,34405.84453,1.92521,387.354,34.298,45.068,45.000,0.00,0.10,-272.72,-272.79,-8,1000,-7,24.8,26.6,4.3,24.5,27.4,4.5,5.73,1.90,3.9,28.4
2015-07-25 01:24:00,0.0,1.90429,0.00031,382.164,0.029,1.0789,0.0017,140.000,45.000,34405.90251,1.92519,387.300,34.282,45.068,45.000,0.00,0.10,-272.73,-272.79,-8,1000,-7,24.7,26.7,4.3,24.5,27.5,4.5,5.73,1.91,3.9,28.4
2015-07-25 01:25:00,0.0,1.90440,0.00034,382.152,0.039,1.0762,0.0022,139.997,45.000,34403.93811,1.92529,387.273,34.271,45.068,45.000,0.00,0.10,-272.74,-272.79,-8,1000,-7,24.8,26.6,4.3,24.5,27.5,4.5,5.73,1.90,3.9,28.4
2015-07-25 01:26:00,0.0,1.90427,0.00062,382.104,0.035,1.0782,0.0024,139.999,45.000,34406.72924,1.92521,387.235,34.258,45.068,45.000,0.00,0.10,-272.73,-272.79,-8,1000,-7,24.8,26.7,4.3,24.5,27.5,4.5,5.73,1.89,3.8,28.4
2015-07-25 01:27:00,0.0,1.90393,0.00035,382.146,0.050,1.0785,0.0013,139.997,45.000,34406.75696,1.92485,387.279,34.251,45.068,45.000,0.00,0.10,-272.73,-272.79,-8,1000,-7,24.8,26.6,4.3,24.5,27.5,4.5,5.73,1.88,3.8,28.4
2015-07-25 01:28:00,0.0,1.90373,0.00058,382.128,0.058,1.0762,0.0015,139.998,45.000,34405.10793,1.92462,387.251,34.249,45.068,45.000,0.00,0.10,-272.73,-272.79,-8,1000,-7,24.7,26.6,4.2,24.5,27.4,4.5,5.73,1.87,3.8,28.4
2015-07-25 01:29:00,0.0,1.90346,0.00036,382.113,0.041,1.0767,0.0019,140.002,45.000,34406.85192,1.92433,387.235,34.232,45.068,45.000,0.00,0.10,-272.73,-272.79,-8,1000,-7,24.8,26.6,4.3,24.5,27.5,4.5,5.73,1.86,3.8,28.4
2015-07-25 01:30:00,0.0,1.90325,0.00032,382.162,0.040,1.0751,0.0020,140.001,45.000,34407.30063,1.92414,387.281,34.209,45.068,45.000,0.00,0.10,-272.72,-272.78,-8,999,-7,24.7,26.6,4.3,24.5,27.4,4.5,5.73,1.86,3.8,28.3
2015-07-25 01:31:00,0.0,1.90324,0.00031,382.111,0.033,1.0747,0.0020,139.999,45.000,34406.14395,1.92409,387.225,34.192,45.068,45.000,0.00,0.10,-272.73,-272.79,-8,1000,-7,24.7,26.6,4.2,24.5,27.4,4.5,5.73,1.86,3.8,28.3
2015-07-25 01:32:00,0.0,1.90331,0.00034,382.104,0.042,1.0739,0.0021,140.000,45.000,34406.50328,1.92409,387.214,34.188,45.068,45.000,0.00,0.10,-272.73,-272.79,-8,1000,-7,24.7,26.6,4.2,24.5,27.4,4.5,5.73,1.86,3.8,28.3
2015-07-25 01:33:00,0.0,1.90320,0.00041,382.177,0.049,1.0737,0.0019,140.000,45.000,34405.52400,1.92406,387.285,34.192,45.068,45.000,0.00,0.10,-272.72,-272.78,-8,1000,-7,24.7,26.5,4.2,24.5,27.4,4.4,5.73,1.87,3.8,28.3
2015-07-25 01:34:00,0.0,1.90303,0.00031,382.096,0.044,1.0728,0.0021,140.001,45.000,34406.72908,1.92382,387.201,34.191,45.068,45.000,0.00,0.10,-272.73,-272.79,-8,1000,-7,24.7,26.6,4.2,24.5,27.4,4.4,5.73,1.88,3.8,28.3
2015-07-25 01:35:00,0.0,1.90295,0.00039,382.146,0.039,1.0726,0.0018,140.000,45.000,34408.51418,1.92373,387.249,34.186,45.068,45.000,0.00,0.10,-272.73,-272.80,-8,1000,-7,24.7,26.5,4.2,24.5,27.4,4.4,5.73,1.89,3.8,28.3
2015-07-25 01:36:00,0.0,1.90261,0.00040,382.122,0.040,1.0714,0.0013,139.998,45.000,34407.68245,1.92343,387.221,34.187,45.068,45.000,0.00,0.10,-272.72,-272.79,-8,1000,-7,24.7,26.5,4.2,24.5,27.4,4.4,5.73,1.91,3.8,28.3
2015-07-25 01:37:00,0.0,1.90165,0.00053,382.179,0.061,1.0728,0.0028,140.002,45.000,34408.93640,1.92249,387.278,34.186,45.067,45.000,0.00,0.10,-272.73,-272.79,-8,1000,-7,24.7,26.6,4.2,24.5,27.4,4.4,5.73,1.90,3.8,28.3
2015-07-25 01:38:00,0.0,1.90128,0.00039,382.312,0.027,1.0706,0.0021,139.998,45.000,34406.21507,1.92203,387.408,34.177,45.067,45.000,0.00,0.10,-272.73,-272.79,-8,1000,-7,24.7,26.5,4.2,24.5,27.3,4.4,5.73,1.91,3.8,28.3
2015-07-25 01:39:00,0.0,1.90043,0.00022,382.338,0.043,1.0684,0.0028,139.998,45.000,34409.98079,1.92110,387.423,34.181,45.067,45.000,0.00,0.10,-272.73,-272.79,-8,1000,-7,24.7,26.4,4.1,24.5,27.3,4.4,5.73,1.90,3.8,28.3
2015-07-25 01:40:00,0.0,1.90040,0.00038,382.360,0.050,1.0682,0.0017,139.997,45.000,34407.61291,1.92109,387.447,34.189,45.067,45.000,0.00,0.10,-272.73,-272.79,-8,1000,-7,24.7,26.4,4.2,24.5,27.2,4.4,5.73,1.89,3.8,28.4
2015-07-25 01:41:00,0.0,1.90041,0.00029,382.403,0.049,1.0659,0.0032,139.999,45.000,34409.61061,1.92103,387.476,34.191,45.067,45.000,0.00,0.10,-272.73,-272.79,-8,1000,-7,24.7,26.4,4.1,24.5,27.2,4.4,5.73,1.88,3.8,28.4
2015-07-25 01:42:00,0.0,1.90034,0.00047,382.444,0.032,1.0625,0.0027,139.998,45.000,34408.76642,1.92093,387.500,34.188,45.067,45.000,0.00,0.10,-272.73,-272.80,-8,1000,-7,24.7,26.3,4.1,24.5,27.1,4.3,5.73,1.87,3.8,28.4
2015-07-25 01:43:00,0.0,1.90016,0.00037,382.426,0.038,1.0596,0.0018,139.998,45.000,34408.42743,1.92065,387.470,34.186,45.067,45.000,0.00,0.10,-272.72,-272.79,-8,1000,-7,24.7,26.2,4.0,24.5,27.0,4.2,5.73,1.86,3.8,28.4
2015-07-25 01:44:00,0.0,1.90052,0.00031,382.422,0.026,1.0602,0.0018,140.000,45.000,34405.53240,1.92101,387.467,34.188,45.067,45.000,0.00,0.10,-272.72,-272.79,-8,1000,-7,24.7,26.2,4.0,24.5,27.0,4.2,5.73,1.86,3.8,28.4
2015-07-25 01:45:00,0.0,1.90039,0.00035,382.413,0.034,1.0576,0.0019,140.000,45.000,34407.37519,1.92090,387.446,34.189,45.067,45.000,0.00,0.10,-272.73,-272.79,-8,999,-7,24.7,26.2,4.0,24.5,27.0,4.2,5.73,1.86,3.8,28.4
2015-07-25 01:46:00,0.0,1.90041,0.00030,382.406,0.040,1.0560,0.0020,139.998,45.000,34405.67146,1.92084,387.432,34.189,45.067,45.000,0.00,0.10,-272.73,-272.79,-8,1000,-7,24.7,26.2,4.0,24.5,27.0,4.2,5.73,1.87,3.8,28.4
2015-07-25 01:47:00,0.0,1.90052,0.00047,382.369,0.032,1.0573,0.0019,139.998,45.000,34407.99640,1.92093,387.402,34.187,45.067,45.000,0.00,0.10,-272.72,-272.79,-8,1000,-7,24.7,26.2,4.0,24.5,27.0,4.2,5.73,1.88,3.8,28.3